When you browse on this site, cookies collect data to enhance your experience and personalize the content and advertising you see.
Visit our Privacy Policy to learn more. By continuing to use the site, you agree to this use of cookies and data.
  • In Spain
  • List of Countries
  • For 7 days
  • Water Temperature
  • Weather Map
  • Weather Widgets
  • user-avatar
    Login

    Hourly Weather Arkalyk

    Today, 17 November, Sunday

    Time Temperature Precipitation Wind Pressure Humidity
    00:00 -7°C° 0 mm 5 mps 745 mmHg 55%
    01:00 -7°C° 0 mm 5 mps 745 mmHg 56%
    02:00 -7°C° 0 mm 5 mps 745 mmHg 56%
    03:00 -7°C° 0 mm 5 mps 745 mmHg 56%
    04:00 -8°C° 0 mm 6 mps 745 mmHg 56%
    05:00 -8°C° 0 mm 6 mps 744 mmHg 56%
    06:00 -8°C° 0 mm 6 mps 744 mmHg 57%
    07:00 -8°C° 0 mm 6 mps 743 mmHg 57%
    08:00 -8°C° 0 mm 6 mps 743 mmHg 55%
    09:00 -6°C° 0 mm 6 mps 743 mmHg 53%
    10:00 -6°C° 0 mm 7 mps 743 mmHg 50%
    11:00 -4°C° 0 mm 7 mps 743 mmHg 49%
    12:00 -4°C° 0 mm 8 mps 742 mmHg 48%
    13:00 -2°C° 0 mm 8 mps 741 mmHg 47%
    14:00 -4°C° 0 mm 8 mps 741 mmHg 49%
    15:00 -4°C° 0 mm 8 mps 741 mmHg 51%
    16:00 -5°C° 0 mm 8 mps 741 mmHg 53%
    17:00 -5°C° 0 mm 8 mps 740 mmHg 57%
    18:00 -5°C° 0 mm 8 mps 740 mmHg 61%
    19:00 -6°C° 0 mm 8 mps 739 mmHg 64%
    20:00 -6°C° 0 mm 8 mps 739 mmHg 70%
    21:00 -6°C° 0 mm 7 mps 739 mmHg 75%
    22:00 -6°C° 0 mm 7 mps 739 mmHg 81%
    23:00 -6°C° 0 mm 7 mps 738 mmHg 84%

    Tomorrow, 18 November, Monday

    Time Temperature Precipitation Wind Pressure Humidity
    00:00 -7°C° 0 mm 7 mps 738 mmHg 87%
    01:00 -7°C° 0 mm 7 mps 737 mmHg 90%
    02:00 -6°C° 0 mm 6 mps 737 mmHg 90%
    03:00 -6°C° 0 mm 6 mps 737 mmHg 90%
    04:00 -7°C° 0 mm 5 mps 737 mmHg 91%
    05:00 -7°C° 0 mm 5 mps 737 mmHg 90%
    06:00 -7°C° 0 mm 4 mps 737 mmHg 90%
    07:00 -7°C° 0 mm 4 mps 737 mmHg 90%
    08:00 -7°C° 0 mm 4 mps 738 mmHg 87%
    09:00 -5°C° 0 mm 4 mps 738 mmHg 84%
    10:00 -4°C° 0 mm 4 mps 738 mmHg 82%
    11:00 -4°C° 0 mm 4 mps 738 mmHg 80%
    12:00 -4°C° 0 mm 4 mps 738 mmHg 79%
    13:00 -3°C° 0 mm 4 mps 738 mmHg 77%
    14:00 -4°C° 0 mm 3 mps 738 mmHg 81%
    15:00 -4°C° 0 mm 3 mps 738 mmHg 85%
    16:00 -4°C° 0 mm 2 mps 738 mmHg 89%
    17:00 -4°C° 0 mm 2 mps 737 mmHg 90%
    18:00 -4°C° 0 mm 2 mps 737 mmHg 91%
    19:00 -3°C° 0 mm 1 mps 737 mmHg 93%
    20:00 -3°C° 0 mm 1 mps 737 mmHg 93%
    21:00 -3°C° 0 mm 1 mps 737 mmHg 93%
    22:00 -3°C° 0 mm 1 mps 736 mmHg 92%
    23:00 -3°C° 0 mm 1 mps 736 mmHg 92%

    Day after tomorrow, 19 November, Tuesday

    Time Temperature Precipitation Wind Pressure Humidity
    00:00 -3°C° 0 mm 1 mps 735 mmHg 91%
    01:00 -5°C° 0 mm 2 mps 735 mmHg 90%
    02:00 -5°C° 0 mm 2 mps 735 mmHg 90%
    03:00 -5°C° 0 mm 2 mps 734 mmHg 89%
    04:00 -5°C° 0 mm 2 mps 734 mmHg 89%
    05:00 -7°C° 0.4 mm 3 mps 734 mmHg 90%
    06:00 -7°C° 0.4 mm 3 mps 734 mmHg 91%
    07:00 -8°C° 0.4 mm 4 mps 734 mmHg 92%
    08:00 -10°C° 0.4 mm 5 mps 734 mmHg 91%
    09:00 -10°C° 0.4 mm 5 mps 734 mmHg 90%
    10:00 -10°C° 0.4 mm 6 mps 734 mmHg 89%
    11:00 -11°C° 0.1 mm 6 mps 734 mmHg 87%
    12:00 -12°C° 0.1 mm 6 mps 735 mmHg 84%
    13:00 -14°C° 0.1 mm 6 mps 735 mmHg 82%
    14:00 -15°C° 0 mm 7 mps 735 mmHg 81%
    15:00 -18°C° 0 mm 7 mps 736 mmHg 81%
    16:00 -19°C° 0 mm 7 mps 736 mmHg 81%
    17:00 -21°C° 0 mm 7 mps 736 mmHg 81%
    18:00 -23°C° 0 mm 7 mps 737 mmHg 82%
    19:00 -24°C° 0 mm 7 mps 737 mmHg 82%
    20:00 -23°C° 0 mm 6 mps 738 mmHg 82%
    21:00 -23°C° 0 mm 6 mps 738 mmHg 82%
    22:00 -24°C° 0 mm 6 mps 738 mmHg 82%
    23:00 -24°C° 0 mm 6 mps 739 mmHg 82%

    20 November, Wednesday

    Time Temperature Precipitation Wind Pressure Humidity
    00:00 -24°C° 0 mm 6 mps 739 mmHg 82%
    01:00 -26°C° 0 mm 6 mps 739 mmHg 83%
    02:00 -25°C° 0 mm 5 mps 739 mmHg 83%
    03:00 -25°C° 0 mm 5 mps 739 mmHg 84%
    04:00 -26°C° 0 mm 5 mps 739 mmHg 84%
    05:00 -26°C° 0 mm 5 mps 740 mmHg 84%
    06:00 -26°C° 0 mm 5 mps 740 mmHg 84%
    07:00 -27°C° 0 mm 5 mps 740 mmHg 85%
    08:00 -26°C° 0 mm 5 mps 740 mmHg 83%
    09:00 -26°C° 0 mm 5 mps 741 mmHg 81%
    10:00 -26°C° 0 mm 5 mps 741 mmHg 80%
    11:00 -25°C° 0 mm 5 mps 741 mmHg 79%
    12:00 -25°C° 0 mm 5 mps 741 mmHg 78%
    13:00 -25°C° 0 mm 5 mps 741 mmHg 78%
    14:00 -25°C° 0 mm 5 mps 741 mmHg 80%
    15:00 -25°C° 0 mm 5 mps 741 mmHg 82%
    16:00 -26°C° 0 mm 5 mps 742 mmHg 83%
    17:00 -26°C° 0 mm 5 mps 742 mmHg 84%
    18:00 -26°C° 0 mm 5 mps 742 mmHg 85%
    19:00 -26°C° 0 mm 5 mps 743 mmHg 86%
    20:00 -26°C° 0 mm 5 mps 743 mmHg 86%
    21:00 -25°C° 0 mm 4 mps 744 mmHg 86%
    22:00 -25°C° 0 mm 4 mps 744 mmHg 86%
    23:00 -25°C° 0 mm 4 mps 744 mmHg 87%

    21 November, Thursday

    Time Temperature Precipitation Wind Pressure Humidity
    00:00 -25°C° 0 mm 4 mps 744 mmHg 87%
    01:00 -24°C° 0 mm 3 mps 744 mmHg 87%
    02:00 -24°C° 0 mm 3 mps 744 mmHg 87%
    03:00 -24°C° 0 mm 3 mps 745 mmHg 87%
    04:00 -24°C° 0 mm 3 mps 745 mmHg 87%
    05:00 -24°C° 0 mm 3 mps 745 mmHg 87%
    06:00 -23°C° 0 mm 2 mps 745 mmHg 87%
    07:00 -23°C° 0 mm 2 mps 746 mmHg 87%
    08:00 -19°C° 0 mm 1 mps 746 mmHg 83%
    09:00 -19°C° 0 mm 1 mps 746 mmHg 80%
    10:00 -18°C° 0 mm 0 mps 746 mmHg 76%
    11:00 -17°C° 0 mm 1 mps 746 mmHg 73%
    12:00 -16°C° 0 mm 1 mps 746 mmHg 69%
    13:00 -17°C° 0 mm 2 mps 746 mmHg 66%
    14:00 -17°C° 0 mm 2 mps 746 mmHg 69%
    15:00 -17°C° 0 mm 2 mps 745 mmHg 72%
    16:00 -17°C° 0 mm 2 mps 745 mmHg 75%
    17:00 -18°C° 0 mm 3 mps 745 mmHg 76%
    18:00 -18°C° 0 mm 3 mps 745 mmHg 77%
    19:00 -19°C° 0 mm 3 mps 745 mmHg 79%
    20:00 -20°C° 0 mm 4 mps 744 mmHg 80%
    21:00 -20°C° 0 mm 4 mps 744 mmHg 82%
    22:00 -20°C° 0 mm 4 mps 744 mmHg 84%
    23:00 -19°C° 0 mm 4 mps 744 mmHg 85%

    22 November, Friday

    Time Temperature Precipitation Wind Pressure Humidity
    00:00 -20°C° 0 mm 5 mps 743 mmHg 87%
    01:00 -20°C° 0 mm 5 mps 743 mmHg 89%
    02:00 -20°C° 0 mm 5 mps 743 mmHg 90%
    03:00 -20°C° 0 mm 5 mps 743 mmHg 91%
    04:00 -20°C° 0 mm 5 mps 742 mmHg 92%
    05:00 -19°C° 0 mm 4 mps 743 mmHg 92%
    06:00 -19°C° 0 mm 4 mps 743 mmHg 93%
    07:00 -19°C° 0 mm 4 mps 743 mmHg 93%
    08:00 -17°C° 0 mm 3 mps 743 mmHg 91%
    09:00 -16°C° 0 mm 3 mps 744 mmHg 89%
    10:00 -16°C° 0 mm 3 mps 744 mmHg 87%
    11:00 -15°C° 0 mm 3 mps 744 mmHg 86%
    12:00 -14°C° 0 mm 3 mps 744 mmHg 84%
    13:00 -14°C° 0 mm 3 mps 744 mmHg 83%
    14:00 -14°C° 0 mm 3 mps 744 mmHg 86%
    15:00 -15°C° 0 mm 3 mps 745 mmHg 89%
    16:00 -14°C° 0 mm 2 mps 745 mmHg 92%
    17:00 -15°C° 0 mm 2 mps 745 mmHg 93%
    18:00 -15°C° 0 mm 2 mps 746 mmHg 94%
    19:00 -15°C° 0 mm 2 mps 746 mmHg 95%
    20:00 -15°C° 0 mm 2 mps 746 mmHg 95%
    21:00 -14°C° 0 mm 1 mps 747 mmHg 95%
    22:00 -14°C° 0 mm 1 mps 747 mmHg 95%
    23:00 -14°C° 0 mm 1 mps 747 mmHg 95%
    Show more